Location: Unspecified
(0.0000°N, 0.0000°E)
Time: 19:40:02
(UTC+00:00)

ISS - Visible Passes

Search period start: 01 February 2015 00:00
Search period end: 11 February 2015 00:00
Orbit: 400 x 408 km, 51.6° (Epoch: 01 February)

Date Brightness Start Highest point End Pass type
(mag) Time Alt. Az. Time Alt. Az. Time Alt. Az.
02 Feb -3.4 05:42:47 10° NW 05:46:03 81° SW 05:49:20 10° SSE visible
03 Feb -1.8 04:52:30 23° NNE 04:53:45 32° NE 04:56:45 10° ESE visible
04 Feb -1.6 05:35:45 12° W 05:37:45 19° SW 05:40:08 10° S visible
05 Feb -2.4 04:46:13 39° S 04:46:13 39° S 04:48:34 10° SSE visible
